Welcome to the New NWS' Forecast!
Most changes are behind the scenes, but click here for differences you might notice.
Latest weather observations around

Montgomery, Dannelly Field (KMGM)

Using English Units (Switch to International System of Units)
Date/ Time (CST) Wind (mph) Vis. (mi) Weather Sky Cond. Temp (°F) Rel. Humidity Wind Chill (°F) Heat Index (°F) Pressure Precip. (in)
Air Dwpt 6 hour Altimeter (inHg) Sea level (inHg) 1 hr 3 hr 6 hr
Max Min
Nov 18 01:53 E 5 10 Clear CLR 50 43     77% 48   30.01 30      
Nov 18 00:53 E 3 10 Clear CLR 51 44     77%     30.02 30.01      
Nov 17 23:53 SSE 3 10 Clear CLR 52 44     74%     30.03 30.03      
Nov 17 22:53 SE 5 10 Clear CLR 53 44     71%     30.04 30.03      
Nov 17 21:53 SE 7 10 Clear CLR 55 45     69%     30.05        
Nov 17 20:53 ESE 6 10 Clear CLR 52 44     74%     30.06 30.06      
Nov 17 19:53 E 6 10 Clear CLR 53 44     71%     30.07 30.07      
Nov 17 18:53 E 6 10 Clear CLR 55 45     69%     30.07 30.06      
Nov 17 17:53 E 3 10 Clear CLR 58 44     60%     30.07 30.06      
Nov 17 16:53 E 3 10 Clear CLR 62 44     52%     30.06 30.06      
Nov 17 15:53 Calm 10 Clear CLR 69 42     38%     30.06 30.06      
Nov 17 14:53 Calm 10 Clear CLR 70 41     35%     30.06 30.05      
Nov 17 13:53 Calm 10 Clear CLR 70 43     38%     30.07 30.07      
Nov 17 12:53 5 10 Clear CLR 68 44     42%     30.1 30.1      
Nov 17 10:53   10 Clear CLR 65 42     43%     30.16 30.16      
Notice The following observation data may not be complete
Nov 17 09:53 Calm 10 Clear CLR          %     30.19        
Nov 17 08:53 ENE 5 10 Clear CLR 54 45     72%     30.2 30.2      
Nov 17 07:53 Calm 9 Clear CLR 48 45     89%     30.2 30.2      
Nov 17 07:20 Calm 4 Fog/Mist CLR 44 42     93%     30.2        
Nov 17 07:06 Calm 2 Fog/Mist CLR 43 41     93%     30.19        
Nov 17 07:00 Calm 1.25 Fog/Mist FEW002 42 41     96%     30.19        
Nov 17 06:53 Calm 0.5 Fog VV002 41 40     96%     30.18 30.18      
Nov 17 06:33 Calm 0.25 Fog VV002 39 37     93%     30.18        
Nov 17 06:22 Calm 0.25 Fog VV001 40 39     97%     30.17        
Nov 17 06:14 Calm 0.5 Fog VV002 40 38     93%     30.18        
Nov 17 06:05 Calm 0.25 Fog VV001 40 39     97%     30.17        
Nov 17 05:53 Calm 0.25 Fog VV002 42 39     89%     30.17 30.17      
Nov 17 05:32 Calm 0.25 Fog VV002 41 39     93%     30.16        
Nov 17 05:22 E 3 0.75 Fog/Mist VV002 41 39     93% 39   30.16        
Nov 17 05:20 E 3 1.25 Fog/Mist FEW002 41 39     93% 39   30.16        
Nov 17 05:17 E 3 1.5 Fog/Mist CLR 41 39     93% 39   30.15        
Nov 17 04:53 Calm 0.5 Fog CLR 39 37     93%     30.15 30.14      
Nov 17 04:46 Calm 0.75 Fog/Mist CLR 40 38     93%     30.15        
Nov 17 04:42 Calm 1.5 Fog/Mist CLR 40 38     93%     30.15        
Nov 17 04:38 Calm 3 Fog/Mist CLR 40 38     93%     30.14        
Nov 17 04:34 Calm 1.5 Fog/Mist CLR 41 39     93%     30.14        
Nov 17 04:28 Calm 0.75 Fog/Mist CLR 42 40     92%     30.14        
Nov 17 04:08 Calm 0.75 Fog/Mist VV002 44 42     93%     30.14        
Nov 17 03:53 Calm 0.25 Fog VV002 44 42     93%     30.14 30.14      
Nov 17 03:44 Calm 0.25 Fog VV001 42 40     92%     30.14        
Nov 17 03:30 Calm 0.5 Fog VV002 41 39     93%     30.13        
Nov 17 03:28 Calm 0.75 Fog/Mist CLR 41 39     93%     30.13        
Nov 17 03:21 Calm 1.5 Fog/Mist FEW003 41 40     96%     30.13        
Nov 17 03:13 Calm 1.75 Fog/Mist CLR 46 44     93%     30.13        
Nov 17 03:06 Calm 4 Fog/Mist FEW002 46 43     89%     30.14        
Nov 17 02:53 Calm 2.5 Fog/Mist FEW002 42 39     89%     30.14 30.14      
Nov 17 02:25 Calm 3 Fog/Mist CLR 44 42     93%     30.14        
Nov 17 02:18 Calm 1.75 Fog/Mist FEW002 43 41     93%     30.14        
Nov 17 02:09 Calm 1.25 Fog/Mist FEW002 43 41     93%     30.14        
Nov 17 01:53 Calm 0.75 Fog/Mist VV002 43 42     97%     30.14 30.14      
Nov 17 01:28 Calm 0.5 Fog VV002 46 44     93%     30.14        
Nov 17 01:13 Calm 0.25 Fog VV002 46 44     93%     30.14        
Nov 17 01:05 Calm 0.5 Fog VV002 45 43     93%     30.14        
Nov 17 00:53 Calm 0.25 Fog VV002 45 43     93%     30.15 30.14      
Nov 17 00:28 Calm 0.25 Fog VV002 47 45     93%     30.15        
Nov 17 00:10 Calm 0.25 Fog VV003 46 45     96%     30.15        
Nov 17 00:00 Calm 0.5 Fog VV003 46 45     96%     30.15        
Nov 16 23:53 Calm 1 Fog/Mist CLR 47 45     93%     30.15 30.15      
Nov 16 23:51 Calm 1.25 Fog/Mist CLR 46 45     93%     30.15        
Nov 16 23:37 Calm 2.5 Fog/Mist CLR 48 46     93%     30.15        
Nov 16 22:53 Calm 4 Fog/Mist CLR 47 45     93%     30.15 30.15      
Nov 16 21:53 WNW 3 5 Fog/Mist CLR 50 47     89% 49   30.15 30.14      
Nov 16 20:53 WNW 3 10 Clear CLR 52 49     89%     30.14 30.14      
Nov 16 19:53 NNW 3 10 Clear CLR 55 50     83%     30.13 30.13      
Nov 16 18:53 NNW 6 10 Clear CLR 57 50     77%     30.13 30.12      
Nov 16 17:53 NNW 5 10 Clear CLR 60 50     69%     30.11 30.11      
Nov 16 16:53 NNW 6 10 Clear CLR 63 51     65%     30.11 30.1      
Nov 16 15:53 NNW 9 10 Clear CLR 68 51     55%     30.1 30.09      
Nov 16 14:53 NNW 8 10 Mostly Clear FEW043 70 50     49%     30.09 30.09      
Nov 16 13:53 NW 5 10 Clear CLR 71 49     45%   70 30.1 30.09      
Nov 16 12:53 Calm 10 Clear CLR 68 48     49%     30.11 30.11      
Nov 16 11:53 3 10 Clear CLR 68 48     49%     30.13 30.12      
Nov 16 10:53 3 10 Clear CLR 65 47     52%     30.17 30.16      
Nov 16 09:53 NNW 5 10 Clear CLR 62 46     56%     30.19 30.18      
Nov 16 08:53 Calm 10 Clear CLR 57 48     72%     30.19 30.18      
Nov 16 07:53 Calm 9 Clear CLR 50 46     86%     30.18 30.18      
Nov 16 06:53 S 3 6 Fog/Mist FEW070 44 42     93% 43   30.17 30.17      
Nov 16 05:53 Calm 6 Fog/Mist CLR 43 41     93%     30.15 30.15      
Nov 16 04:53 Calm 10 Clear CLR 45 42     90%     30.14 30.14      
Nov 16 03:53 Calm 10 Cloudy OVC075 47 43     86%     30.12 30.12      
Nov 16 02:53 Calm 9 Clear CLR 45 42     90%     30.12 30.11      
Nov 16 01:53 Calm 10 Clear CLR 45 43     93%     30.12 30.11      
Nov 16 00:53 Calm 10 Mostly Clear FEW090 46 43     89%     30.12 30.12      
Nov 15 23:53 Calm 10 Mostly Cloudy BKN075 BKN090 48 44     86%     30.13 30.13      
Nov 15 22:53 Calm 10 Cloudy BKN080 OVC120 49 45     86%     30.14 30.14      
Nov 15 21:53 Calm 10 Cloudy SCT080 OVC120 47 43     86%     30.13 30.13      
Nov 15 20:53 S 5 10 Clear CLR 47 42     83% 45   30.13 30.13      
Nov 15 19:53 Calm 10 Clear CLR 48 43     83%     30.13 30.12      
Nov 15 18:53 Calm 10 Clear CLR 49 43     80%     30.12 30.12      
Nov 15 17:53 Calm 10 Clear CLR 53 43     69%     30.11 30.11      
Nov 15 16:53 Calm 10 Clear CLR 57 43     59%     30.11 30.11      
Nov 15 15:53 Calm 10 Clear CLR 62 42     48%     30.09 30.09      
Nov 15 14:53 NNW 3 10 Clear CLR 64 41     43%     30.09 30.09      
Nov 15 13:53 ESE 5 10 Clear CLR 63 41     45%     30.1 30.1      
Nov 15 12:53 Calm 10 Clear CLR 60 41     49%     30.12 30.12      
Nov 15 11:53 3 10 Clear CLR 59 41     51%     30.14 30.14      
Nov 15 10:53 SE 8 10 Clear CLR 57 41     55%     30.18 30.17      
Nov 15 09:53 ESE 8 10 Clear CLR 54 41     61%     30.2 30.2      
Nov 15 08:53 ESE 10 10 Clear CLR 50 41     71% 46   30.21 30.21      
Nov 15 07:53 E 8 9 Clear CLR 47 42     83% 43   30.21 30.21      
Nov 15 06:53 E 3 10 Clear CLR 43 40     89% 41   30.2 30.2      
Nov 15 05:53 E 7 10 Clear CLR 42 39     89% 38   30.17 30.17      
Nov 15 04:53 E 7 10 Clear CLR 43 39     86% 39   30.17 30.17      
Nov 15 03:53 E 6 10 Clear CLR 44 40     85% 41   30.17 30.17      
Nov 15 02:53 E 5 10 Clear CLR 45 41     86% 43   30.17 30.17      
Jun 12 08:37 ESE 8 10 Mostly Clear FEW015 81 70     69%   84 30.16        
Jun 11 20:53 ESE 5 10 Clear CLR 79 71     77%   82 30.1 30.09      
Jun 11 16:53 SSE 9 10 Clear CLR 84 68     59%   87 30.07 30.06      
Jun 11 10:53 SE 7 10 Mostly Clear FEW028 86 68     55%   89 30.14 30.13      
Jun 11 10:10 ESE 7 10 Partly Cloudy SCT023 85 70     61%   89 30.15        
Jun 11 09:53 SE 8 10 Mostly Cloudy BKN023 84 70     63%   88 30.15 30.14      
Jun 09 16:53 S 5 10 Clear CLR 87 56     35%   86 29.92 29.91      
Jun 09 15:53 5 10 Mostly Clear FEW060 86 56     36%   85 29.93 29.92      
Jun 08 06:53 Calm 10 Clear CLR 67 58     73%     29.89 29.88      
Jun 07 10:53 NNE 10 10 Clear CLR 80 66     62%   82 29.77 29.76      
Jun 06 13:58 N 9 2 Heavy Rain FEW027 BKN034 OVC060 75 70     84%   76 29.73   0    
Jun 06 13:43 N 10 1.25 Heavy Rain FEW006 BKN022 OVC040 74 69     85%   75 29.74   0    
Jun 06 12:53 SE 11 10 Mostly Cloudy FEW021 SCT033 BKN042 80 70     71%   83 29.75 29.74      
Jun 06 09:53 NE 9 10 Mostly Cloudy BKN007 79 71     77%   82 29.76 29.75      
Jun 06 07:53 Calm 10 Mostly Clear FEW004 74 69     85%   75 29.78 29.77      
Notice The following observation data may not be complete
Jun 05 21:03   6 Rain FEW006 BKN023 OVC110          %         0    
Jun 05 19:28 N 3 10 Mostly Cloudy SCT027 BKN065 75 68     79%   76 29.79